Regional Weather Roundup
Issued by NWS Jackson, KY

Home | Current Version | Previous Version | Text Only | Print | Product List | Glossary Off
Versions: 1 2 3 4 5 6 7 8 9 10 11 12 13 14 15 16 17 18 19 20 21 22 23 24 25 26 27

000
ASUS43 KJKL 250610
RWRJKL

EAST KENTUCKY HOURLY WEATHER ROUNDUP
NATIONAL WEATHER SERVICE JACKSON KY
200 AM EDT WED MAY 25 2016

NOTE: "FAIR" INDICATES FEW OR NO CLOUDS BELOW 12,000 FEET WITH
NO SIGNIFICANT WEATHER AND/OR OBSTRUCTIONS TO VISIBILITY.

* THESE REPORTS ARE NOT UNDER NWS QUALITY CONTROL AND MAY NOT
  REPORT WEATHER SUCH AS PRECIPITATION AND FOG.

KYZ079-080-083-085-087-088-110-112-115-119-120-250700
...EASTERN KENTUCKY...

CITY           SKY/WX    TMP DP  RH WIND       PRES   REMARKS
JACKSON        CLEAR     67  45  45 CALM      30.16S
6HR MIN TEMP:  64; 6HR MAX TEMP:  75;

LONDON         CLEAR     58  52  80 CALM      30.15S
6HR MIN TEMP:  57; 6HR MAX TEMP:  77;

SOMERSET*      CLEAR     57  52  82 CALM      30.15R
MONTICELLO*    CLEAR     60  57  89 W5        30.14S
6HR MIN TEMP:  60; 6HR MAX TEMP:  78;

WILLIAMSBURG*  CLEAR     59  54  82 SE6       30.15F
MIDDLESBORO*   CLEAR     54  51  92 CALM      30.19S
6HR MIN TEMP:  54; 6HR MAX TEMP:  74;

HARLAN APT*      N/A     54  52  94 CALM      30.20S
HAZARD APT*    CLEAR     55  52  88 CALM      30.16S
BLACK MTN*       N/A     59  48  67 SW5         N/A
PIKE CO APT*     N/A     63  53  71 S5        30.18S
MOREHEAD APT*  PTCLDY    59  52  77 SE6       30.15S
ASHLAND*       CLEAR     55  54  94 CALM      30.11R
$$

KYZ035-036-041-042-044-050-067-078-099-250700
...CENTRAL KENTUCKY...

CITY           SKY/WX    TMP DP  RH WIND       PRES   REMARKS
MT STERLING*   CLEAR     55  54  94 CALM      30.14F
FLEMING/MASON* CLEAR     64  50  61 S3        30.13F
DANVILLE*      CLEAR     59  55  88 CALM      30.13S
RICHMOND*      CLEAR     61  50  67 SE5       30.12F
LEXINGTON      CLEAR     65  49  56 SE6       30.12S
6HR MIN TEMP:  65; 6HR MAX TEMP:  77;

FRANKFORT      CLEAR     63  53  70 CALM      30.09S
6HR MIN TEMP:  61; 6HR MAX TEMP:  79;

LOUISVILLE     CLOUDY    70  56  61 SE7       30.07S
6HR MIN TEMP:  69; 6HR MAX TEMP:  81;

LEBANON*         N/A     64  55  72 SE8       30.11S
GLASGOW*       PTCLDY    61  58  89 CALM      30.09F
BOWLING GREEN  CLEAR     65  60  84 CALM      30.08S
6HR MIN TEMP:  65; 6HR MAX TEMP:  81;

$$

KYZ091>093-OHZ055-061-077-WVZ005-015-034-035-042-250700
...SOUTHERN OHIO/WEST VIRGINIA...

CITY           SKY/WX    TMP DP  RH WIND       PRES   REMARKS
COVINGTON      MOCLDY    65  50  58 S6        30.09F
COLUMBUS       PTCLDY    58  53  84 CALM      30.10R
DAYTON         PTCLDY    66  47  50 S8        30.10S
WILMINGTON     CLEAR     61  49  64 S3        30.11R
HUNTINGTON       N/A     58  53  84 CALM      30.12S
CHARLESTON       N/A     56  54  93 CALM      30.14S
PINEVILLE*       N/A     52  49  89 MISG      30.24S
BECKLEY          N/A     54  47  77 CALM      30.20F
BLUEFIELD        N/A     58  48  69 SW5       30.23S
LOGAN CO APT*    N/A     59  54  82 CALM      30.17S
$$

VAZ002-007-008-TNZ017-027-036-066-071-250700
...SOUTHWEST VIRGINIA/EAST TENNESSEE...

CITY           SKY/WX    TMP DP  RH WIND       PRES   REMARKS
WISE*            N/A     61  41  48 CALM      30.24S
JONESVILLE*      N/A     54  50  87 CALM      30.21S
ABINGDON*        N/A     55  51  85 CALM      30.23R
BRISTOL        CLEAR     53  50  89 CALM      30.20S
SEVIERVILLE*   CLEAR     57  50  77 CALM      30.16S
KNOXVILLE      CLEAR     65  51  60 NE3       30.15S
OAK RIDGE      CLEAR     62  57  83 CALM      30.17R
CROSSVILLE     CLEAR     66  53  63 VRB3      30.18S
NASHVILLE      MOCLDY    66  57  72 S5        30.09F
$$

...KEY TO REMARKS...
VSB - VISIBILITY IN MILES
WCI - WIND CHILL INDEX
HX  - HEAT INDEX

$$




USA.gov is the U.S. government's official web portal to all federal, state and local government web resources and services.